Bradshaw AFB, HI

2:35 PM HST on April 22, 2018 (GMT -1000)
Bradshaw Army Air Field

Weather History for PHSF - October, 2011

Change the Weather History Date:

Sunday, October 16, 2011

  Actual Average Record
Temperature  
Mean Temperature 56 °F -  
Max Temperature 68 °F 69 °F 77 °F (2015)
Min Temperature 44 °F 49 °F 33 °F (2012)
Degree Days  
Heating Degree Days 9    
Growing Degree Days 6 (Base 50)    
Moisture  
Dew Point 45 °F    
Average Humidity 71    
Maximum Humidity 88    
Minimum Humidity 43    
Precipitation  
Precipitation 0.00 in - - ()
Sea Level Pressure  
Sea Level Pressure 30.30 in    
Wind  
Wind Speed 5 mph (West)    
Max Wind Speed 15 mph    
Max Gust Speed 20 mph    
Visibility 10 miles    
Events      
Averages and records for this station are not official NWS values.
T = Trace of Precipitation, MM = Missing Value Source: NWS Daily Summary

Daily Weather History Graph

Daily Weather History Graph

Search for Another Location

Airport or City:

Astronomy

Oct. 16, 2011 Rise Set
Actual Time 6:17 AM HST 5:58 PM HST
Civil Twilight 5:54 AM HST 6:20 PM HST
Nautical Twilight 5:29 AM HST 6:45 PM HST
Astronomical Twilight 5:03 AM HST 7:11 PM HST
Moon 9:25 PM HST (10/16) 10:10 AM HST (10/16)
Length of Visible Light 12h 25m
Length of Day
11h 40m
Waning Gibbous, 80% of the Moon is Illuminated
Oct 16
Waning Gibbous
Oct 19
Last Quarter
Oct 26
New
Nov 2
First Quarter
Nov 10
Full

Hourly Weather History & Observations

Time (HST) Temp. Windchill Dew Point Humidity Pressure Visibility Wind Dir Wind Speed Gust Speed Precip Events Conditions
12:55 AM 48.2 °F - 42.8 °F 82% 30.27 in 12.0 mi NE 3.5 mph - N/A   Clear
1:55 AM 46.4 °F - 41.0 °F 81% 30.30 in 12.0 mi Variable 1.2 mph - N/A   Clear
2:55 AM 44.6 °F 42.2 °F 39.2 °F 81% 30.30 in 12.0 mi East 4.6 mph - N/A   Partly Cloudy
3:55 AM 44.6 °F 41.4 °F 39.2 °F 81% 30.29 in 12.0 mi East 5.8 mph - N/A   Partly Cloudy
4:55 AM 44.6 °F - 39.2 °F 81% 30.20 in 12.0 mi NE 2.3 mph - N/A   Scattered Clouds
5:58 AM 50.0 °F - 42.8 °F 76% 30.28 in 12.0 mi NW 3.5 mph 16.1 mph N/A   Partly Cloudy
6:55 AM 50.0 °F - 42.8 °F 76% 30.32 in 12.0 mi NNE 1.2 mph - N/A   Partly Cloudy
7:55 AM 55.4 °F - 44.6 °F 67% 30.32 in 12.0 mi East 5.8 mph - N/A   Clear
8:55 AM 59.0 °F - 44.6 °F 59% 30.31 in 12.0 mi South 3.5 mph - N/A   Partly Cloudy
9:55 AM 62.6 °F - 44.6 °F 52% 30.29 in 12.0 mi SSW 4.6 mph - N/A   Partly Cloudy
10:55 AM 66.2 °F - 44.6 °F 46% 30.25 in 12.0 mi WSW 10.4 mph 17.3 mph N/A   Partly Cloudy
11:13 AM 66.2 °F - 44.6 °F 46% 30.25 in 12.0 mi WSW 10.4 mph 17.3 mph N/A   Partly Cloudy
11:55 AM 68.0 °F - 46.4 °F 46% 30.57 in 12.0 mi SW 8.1 mph 18.4 mph N/A   Scattered Clouds
12:55 PM 66.2 °F - 46.4 °F 49% 30.20 in 12.0 mi SW 10.4 mph 18.4 mph N/A   Scattered Clouds
1:55 PM 68.0 °F - 50.0 °F 52% 30.20 in 12.0 mi WSW 15.0 mph 18.4 mph N/A   Mostly Cloudy
2:55 PM 68.0 °F - 44.6 °F 43% 30.19 in 12.0 mi SW 8.1 mph 13.8 mph N/A   Scattered Clouds
3:55 PM 64.4 °F - 50.0 °F 59% 30.23 in 12.0 mi WSW 11.5 mph 19.6 mph N/A   Mostly Cloudy
4:55 PM 60.8 °F - 48.2 °F 63% 30.54 in 12.0 mi WSW 9.2 mph - N/A   Mostly Cloudy
5:55 PM 57.2 °F - 50.0 °F 77% 30.26 in 10.0 mi SW 6.9 mph - N/A   Mostly Cloudy
6:55 PM 53.6 °F - 48.2 °F 82% 30.31 in 10.0 mi WSW 1.2 mph - N/A   Mostly Cloudy
7:55 PM 51.8 °F - 48.2 °F 88% 30.30 in 2.0 mi WSW 1.2 mph - N/A   Mist
8:55 PM 51.8 °F - 48.2 °F 88% 30.32 in 2.0 mi WNW 2.3 mph - N/A   Mist
9:21 PM 48.2 °F - 44.6 °F 87% 30.35 in 7.0 mi North 2.3 mph - N/A   Clear
9:55 PM 48.2 °F - 44.6 °F 87% 30.32 in 9.0 mi NE 2.3 mph - N/A   Partly Cloudy
10:55 PM 48.2 °F - 44.6 °F 87% 30.28 in 7.0 mi NE 2.3 mph - N/A   Mostly Cloudy
11:37 PM 51.8 °F - 48.2 °F 88% 30.34 in 7.0 mi North 2.3 mph - N/A   Mostly Cloudy
11:58 PM 51.8 °F - 46.4 °F 82% 30.25 in 10.0 mi North 2.3 mph - N/A   Mostly Cloudy